• în Republica Moldova
  • Lista ţărilor
  • Pe 7 zile
  • Temperatura apei
  • Hartă satelitară
  • Meteo pe hartă
  • Widget-uri
  • user-avatar
    Intrare

    Meteo pe oră la Fier

    Astăzi, 31 Martie, Vineri

    Timp Temperatura Precipitaţii Vânt Presiune Umiditate
    00:00 +14°C° 0 mm 3 m/s 765 mmHg 64%
    01:00 +14°C° 0 mm 3 m/s 765 mmHg 64%
    02:00 +13°C° 0 mm 3 m/s 765 mmHg 65%
    03:00 +13°C° 0 mm 3 m/s 765 mmHg 67%
    04:00 +13°C° 0 mm 3 m/s 765 mmHg 68%
    05:00 +13°C° 0 mm 3 m/s 765 mmHg 66%
    06:00 +14°C° 0 mm 3 m/s 765 mmHg 64%
    07:00 +16°C° 0 mm 3 m/s 765 mmHg 62%
    08:00 +18°C° 0 mm 3 m/s 765 mmHg 56%
    09:00 +20°C° 0 mm 2 m/s 765 mmHg 49%
    10:00 +23°C° 0 mm 2 m/s 765 mmHg 42%
    11:00 +24°C° 0 mm 2 m/s 765 mmHg 40%
    12:00 +24°C° 0 mm 3 m/s 765 mmHg 38%
    13:00 +25°C° 0 mm 3 m/s 765 mmHg 36%
    14:00 +24°C° 0 mm 3 m/s 764 mmHg 39%
    15:00 +22°C° 0 mm 3 m/s 764 mmHg 42%
    16:00 +22°C° 0 mm 4 m/s 764 mmHg 45%
    17:00 +19°C° 0 mm 3 m/s 764 mmHg 53%
    18:00 +17°C° 0 mm 2 m/s 764 mmHg 62%
    19:00 +15°C° 0 mm 2 m/s 764 mmHg 71%
    20:00 +15°C° 0 mm 1 m/s 764 mmHg 72%
    21:00 +14°C° 0 mm 1 m/s 764 mmHg 73%
    22:00 +14°C° 0 mm 1 m/s 764 mmHg 74%
    23:00 +14°C° 0 mm 1 m/s 764 mmHg 74%

    Mâine, 1 Aprilie, Sâmbătă

    Timp Temperatura Precipitaţii Vânt Presiune Umiditate
    00:00 +13°C° 0 mm 1 m/s 764 mmHg 75%
    01:00 +13°C° 0 mm 1 m/s 764 mmHg 75%
    02:00 +13°C° 0 mm 1 m/s 764 mmHg 75%
    03:00 +13°C° 0 mm 1 m/s 764 mmHg 75%
    04:00 +13°C° 0 mm 1 m/s 764 mmHg 74%
    05:00 +14°C° 0 mm 1 m/s 764 mmHg 71%
    06:00 +15°C° 0 mm 2 m/s 764 mmHg 67%
    07:00 +16°C° 0 mm 2 m/s 764 mmHg 64%
    08:00 +18°C° 0 mm 2 m/s 764 mmHg 57%
    09:00 +20°C° 0 mm 2 m/s 764 mmHg 51%
    10:00 +23°C° 0 mm 2 m/s 764 mmHg 45%
    11:00 +22°C° 0 mm 3 m/s 763 mmHg 44%
    12:00 +23°C° 0 mm 4 m/s 763 mmHg 43%
    13:00 +23°C° 0 mm 4 m/s 763 mmHg 41%
    14:00 +22°C° 0,1 mm 4 m/s 762 mmHg 45%
    15:00 +21°C° 0,1 mm 4 m/s 762 mmHg 50%
    16:00 +21°C° 0,1 mm 4 m/s 762 mmHg 54%
    17:00 +19°C° 0 mm 4 m/s 762 mmHg 62%
    18:00 +17°C° 0 mm 3 m/s 762 mmHg 71%
    19:00 +14°C° 0 mm 3 m/s 762 mmHg 80%
    20:00 +14°C° 0 mm 3 m/s 763 mmHg 81%
    21:00 +13°C° 0 mm 3 m/s 763 mmHg 81%
    22:00 +13°C° 0 mm 3 m/s 763 mmHg 81%
    23:00 +13°C° 0 mm 3 m/s 763 mmHg 80%

    Poimâine, 2 Aprilie, Duminică

    Timp Temperatura Precipitaţii Vânt Presiune Umiditate
    00:00 +13°C° 0 mm 3 m/s 763 mmHg 79%
    01:00 +12°C° 0 mm 3 m/s 763 mmHg 78%
    02:00 +12°C° 0 mm 3 m/s 763 mmHg 78%
    03:00 +12°C° 0 mm 4 m/s 762 mmHg 77%
    04:00 +12°C° 0 mm 4 m/s 762 mmHg 76%
    05:00 +12°C° 0 mm 4 m/s 762 mmHg 73%
    06:00 +13°C° 0 mm 4 m/s 762 mmHg 69%
    07:00 +14°C° 0 mm 4 m/s 762 mmHg 65%
    08:00 +17°C° 0 mm 4 m/s 762 mmHg 56%
    09:00 +19°C° 0 mm 4 m/s 762 mmHg 46%
    10:00 +21°C° 0 mm 4 m/s 762 mmHg 37%
    11:00 +22°C° 0 mm 4 m/s 762 mmHg 34%
    12:00 +22°C° 0 mm 5 m/s 762 mmHg 31%
    13:00 +23°C° 0 mm 5 m/s 762 mmHg 29%
    14:00 +22°C° 0 mm 5 m/s 762 mmHg 33%
    15:00 +21°C° 0 mm 6 m/s 761 mmHg 36%
    16:00 +21°C° 0 mm 6 m/s 761 mmHg 40%
    17:00 +19°C° 0 mm 5 m/s 761 mmHg 48%
    18:00 +16°C° 0 mm 5 m/s 761 mmHg 56%
    19:00 +15°C° 0 mm 4 m/s 761 mmHg 65%
    20:00 +14°C° 0 mm 4 m/s 761 mmHg 65%
    21:00 +13°C° 0 mm 4 m/s 761 mmHg 66%
    22:00 +13°C° 0 mm 4 m/s 762 mmHg 67%
    23:00 +13°C° 0,2 mm 3 m/s 761 mmHg 68%

    3 Aprilie, Luni

    Timp Temperatura Precipitaţii Vânt Presiune Umiditate
    00:00 +13°C° 0,2 mm 3 m/s 761 mmHg 68%
    01:00 +13°C° 0,2 mm 3 m/s 761 mmHg 69%
    02:00 +12°C° 0,1 mm 3 m/s 761 mmHg 70%
    03:00 +12°C° 0,1 mm 3 m/s 761 mmHg 70%
    04:00 +12°C° 0,1 mm 3 m/s 761 mmHg 71%
    05:00 +12°C° 0 mm 3 m/s 761 mmHg 70%
    06:00 +13°C° 0 mm 3 m/s 761 mmHg 69%
    07:00 +13°C° 0 mm 3 m/s 761 mmHg 67%
    08:00 +16°C° 0 mm 2 m/s 761 mmHg 61%
    09:00 +18°C° 0 mm 2 m/s 761 mmHg 54%
    10:00 +19°C° 0 mm 2 m/s 761 mmHg 47%
    11:00 +20°C° 0,2 mm 2 m/s 760 mmHg 47%
    12:00 +20°C° 0,2 mm 3 m/s 760 mmHg 48%
    13:00 +20°C° 0,2 mm 3 m/s 760 mmHg 48%
    14:00 +18°C° 0,8 mm 3 m/s 759 mmHg 58%
    15:00 +17°C° 0,8 mm 3 m/s 759 mmHg 68%
    16:00 +14°C° 0,8 mm 3 m/s 759 mmHg 77%
    17:00 +14°C° 0,6 mm 2 m/s 759 mmHg 81%
    18:00 +13°C° 0,6 mm 2 m/s 760 mmHg 86%
    19:00 +13°C° 0,6 mm 2 m/s 760 mmHg 90%
    20:00 +12°C° 0,3 mm 2 m/s 760 mmHg 90%
    21:00 +12°C° 0,3 mm 2 m/s 760 mmHg 91%
    22:00 +12°C° 0,3 mm 2 m/s 760 mmHg 91%
    23:00 +12°C° 0,2 mm 2 m/s 760 mmHg 91%

    4 Aprilie, Marţi

    Timp Temperatura Precipitaţii Vânt Presiune Umiditate
    00:00 +12°C° 0,2 mm 2 m/s 760 mmHg 91%
    01:00 +12°C° 0,2 mm 2 m/s 760 mmHg 91%
    02:00 +11°C° 0,1 mm 1 m/s 760 mmHg 91%
    03:00 +11°C° 0,1 mm 1 m/s 760 mmHg 90%
    04:00 +11°C° 0,1 mm 1 m/s 759 mmHg 90%
    05:00 +12°C° 0,1 mm 1 m/s 759 mmHg 86%
    06:00 +13°C° 0,1 mm 1 m/s 759 mmHg 82%
    07:00 +14°C° 0,1 mm 1 m/s 760 mmHg 78%
    08:00 +15°C° 0 mm 1 m/s 760 mmHg 70%
    09:00 +18°C° 0 mm 1 m/s 760 mmHg 63%
    10:00 +20°C° 0 mm 1 m/s 760 mmHg 56%
    11:00 +20°C° 0,2 mm 1 m/s 759 mmHg 57%
    12:00 +19°C° 0,2 mm 2 m/s 759 mmHg 58%
    13:00 +19°C° 0,2 mm 3 m/s 759 mmHg 58%
    14:00 +18°C° 0,4 mm 2 m/s 759 mmHg 62%
    15:00 +18°C° 0,4 mm 2 m/s 759 mmHg 66%
    16:00 +17°C° 0,4 mm 2 m/s 758 mmHg 70%
    17:00 +16°C° 0,4 mm 2 m/s 759 mmHg 76%
    18:00 +15°C° 0,4 mm 1 m/s 759 mmHg 83%
    19:00 +12°C° 0,4 mm 0 m/s 759 mmHg 89%
    20:00 +13°C° 0,3 mm 1 m/s 759 mmHg 89%
    21:00 +13°C° 0,3 mm 1 m/s 759 mmHg 89%
    22:00 +13°C° 0,3 mm 1 m/s 760 mmHg 89%
    23:00 +13°C° 0,4 mm 1 m/s 759 mmHg 89%

    5 Aprilie, Miercuri

    Timp Temperatura Precipitaţii Vânt Presiune Umiditate
    00:00 +13°C° 0,4 mm 1 m/s 759 mmHg 89%
    01:00 +13°C° 0,4 mm 1 m/s 759 mmHg 89%
    02:00 +12°C° 0,2 mm 1 m/s 759 mmHg 89%
    03:00 +12°C° 0,2 mm 1 m/s 759 mmHg 89%
    04:00 +12°C° 0,2 mm 1 m/s 758 mmHg 88%
    05:00 +13°C° 0,3 mm 1 m/s 758 mmHg 86%
    06:00 +13°C° 0,3 mm 1 m/s 758 mmHg 83%
    07:00 +14°C° 0,3 mm 2 m/s 758 mmHg 81%
    08:00 +14°C° 0,7 mm 2 m/s 758 mmHg 80%
    09:00 +14°C° 0,7 mm 2 m/s 758 mmHg 79%
    10:00 +14°C° 0,7 mm 2 m/s 758 mmHg 78%
    11:00 +14°C° 0,9 mm 2 m/s 758 mmHg 80%
    12:00 +14°C° 0,9 mm 2 m/s 758 mmHg 81%
    13:00 +14°C° 0,9 mm 2 m/s 757 mmHg 83%
    14:00 +14°C° 0,8 mm 2 m/s 757 mmHg 82%
    15:00 +14°C° 0,8 mm 2 m/s 757 mmHg 81%
    16:00 +14°C° 0,8 mm 2 m/s 757 mmHg 80%
    17:00 +13°C° 0,5 mm 2 m/s 757 mmHg 83%
    18:00 +12°C° 0,5 mm 2 m/s 757 mmHg 86%
    19:00 +12°C° 0,5 mm 2 m/s 757 mmHg 89%
    20:00 +10°C° 0,4 mm 2 m/s 757 mmHg 89%
    21:00 +10°C° 0,4 mm 2 m/s 757 mmHg 90%
    22:00 +10°C° 0,4 mm 2 m/s 758 mmHg 90%
    23:00 +10°C° 0,5 mm 2 m/s 757 mmHg 90%
    Arată mai mult